Location: Corcelles
(46.1547°N, 4.7234°E)
Time: 08:45:50
(UTC+00:00)

SeaSat 1 - Pass Details

Date: 14 July 2020
Orbit: 744 x 748 km, 108.0° (Epoch: 14 August)

Event Time Altitude Azimuth Distance (km) Brightness Sun altitude
Rises 02:14:14 0° 24° (NNE) 3,201 7.5 -14.5°
Reaches altitude 10° 02:16:32 10° 21° (NNE) 2,274 6.2 -14.2°
Maximum altitude 02:21:22 58° 303° (WNW) 873 2.8 -13.7°
Enters shadow 02:24:48 19° 230° (SW) 1,726 3.7 -13.4°
